Location: Marcé
(47.5801°N, 0.3280°W)
Time: 17:14:00
(UTC+01:00)

SR - Pass Details

Date: 30 November 2021
Orbit: 582 x 872 km, 66.7° (Epoch: 22 January)

Event Time Altitude Azimuth Distance (km) Brightness Sun altitude
Rises 10:50:37 0° 316° (NW) 2,823 ? 15.7°
Reaches altitude 10° 10:53:03 10° 304° (NW) 1,934 ? 15.9°
Maximum altitude 10:56:42 27° 246° (WSW) 1,171 ? 16.2°
Drops below altitude 10° 11:00:31 10° 188° (S) 2,015 ? 16.5°
Sets 11:03:07 0° 177° (S) 2,965 ? 16.7°
